Regional Weather Roundup
Issued by NWS

Home | Current Version | Previous Version | Graphics & Text | Print | Product List | Glossary On
Versions: 1 2 3 4 5 6 7 8 9 10 11 12 13 14 15 16 17 18 19 20 21 22 23 24 25 26 27 28 29 30 31 32 33 34 35 36 37 38 39 40 41 42 43 44 45 46 47 48 49 50
000
ASUS43 KBIS 221120
RWRND

NORTH DAKOTA REGIONAL WEATHER ROUNDUP
NATIONAL WEATHER SERVICE BISMARCK ND
600 AM CDT TUE JUL 22 2014

NOTE: "FAIR" INDICATES FEW OR NO CLOUDS BELOW 12,000 FEET WITH NO
SIGNIFICANT WEATHER AND/OR OBSTRUCTIONS TO VISIBILITY.


NDZ001>003-009>011-017-221200-
NORTHWEST NORTH DAKOTA

CITY           SKY/WX    TMP DP  RH WIND       PRES   REMARKS
WILLISTON      CLEAR     55  53  93 CALM      30.11R
MINOT          PTCLDY    59  57  93 W7        30.09R
MINOT AFB      CLOUDY    60  60 100 NW7       30.09R
$$

NDZ018>021-031>035-040>046-221200-
SOUTHWEST NORTH DAKOTA

CITY           SKY/WX    TMP DP  RH WIND       PRES   REMARKS
BISMARCK       CLOUDY    64  62  93 CALM      30.09R
DICKINSON      FOG       55  54  96 CALM      30.13R VSB 1/4
GARRISON         N/A     56  56 100 CALM      30.09R
HETTINGER ARPT FOG       54  53  97 CALM      30.16R VSB 1/4
$$

NDZ004>008-012>016-024-026-027-054-221200-
NORTHEAST NORTH DAKOTA

CITY           SKY/WX    TMP DP  RH WIND       PRES   REMARKS
GRAND FORKS    MOCLDY    62  60  93 NW8       29.98R
GRND FRKS AFB  MOCLDY    63  62  99 NW9       30.00R
DEVILS LAKE    CLEAR     61  55  82 NW8       30.05R
$$

NDZ022-023-025-028>030-036>039-047>053-221200-
SOUTHEAST NORTH DAKOTA

CITY           SKY/WX    TMP DP  RH WIND       PRES   REMARKS
FARGO          CLOUDY    66  62  87 NW15      29.99R
JAMESTOWN      PTCLDY    63  60  90 NW9       30.06R
$$




USA.gov is the U.S. government's official web portal to all federal, state and local government web resources and services.